User: anonymous   Login
Location: Unspecified
(43.4680°N, 87.1740°E)
Time: 04:13:58
(UTC+00:00)
Language:

COSMOS 2406 - Orbit

View from above orbital plane
View from above orbital plane
View from above satellite
View from above satellite

Ground track
Ground track

The orbit data is extracted from the following two-line orbital elements,

1 28352U 04021A   21169.43826756  .00000198  00000-0  13435-3 0  9994
2 28352  71.0062 311.2725 0012236  40.1751 320.0272 14.11708292877161
Epoch (UTC): 18 June 2021 10:31:06
Eccentricity: 0.0012236
inclination: 71.0062°
perigee height: 844 km
apogee height: 862 km
right ascension of ascending node: 311.2725°
argument of perigee: 40.1751°
revolutions per day: 14.11708292
mean anomaly at epoch: 320.0272°
orbit number at epoch: 87716

The dashed part of the orbit path shows where the satellite is in the earth's shadow,  

DLR